Nome, AK

12:07 PM AKDT on August 21, 2017 (GMT -0800)
Nome

Weather History for PAOM - August, 2014

Change the Weather History Date:

Monday, August 18, 2014

  Actual Average Record
Temperature  
Mean Temperature 54 °F 50 °F  
Max Temperature 58 °F 56 °F 70 °F (1956)
Min Temperature 49 °F 44 °F 27 °F (1966)
Degree Days  
Heating Degree Days 11 15  
Month to date heating degree days 95 258  
Since 1 June heating degree days 1086 1173  
Since 1 July heating degree days 518 656  
Cooling Degree Days 0 0  
Month to date cooling degree days 1 0  
Year to date cooling degree days 3 3  
Since 1 June cooling degree days 3 3  
Growing Degree Days 4 (Base 50)    
Moisture  
Dew Point 51 °F    
Average Humidity 0    
Maximum Humidity 0    
Minimum Humidity 0    
Precipitation  
Precipitation 0.00 in 0.10 in 1.06 in (2012)
Month to date precipitation 0.42 1.90  
Year to date precipitation 7.73 9.13  
Snow  
Snow 0.00 in 0.00 in 0.00 in ()
Month to date snowfall 0.0 0.0  
Since 1 June snowfall 0.0 0.3  
Since 1 July snowfall 0.0 0.0  
Snow Depth 0.00 in    
Sea Level Pressure  
Sea Level Pressure 29.80 in    
Wind  
Wind Speed 9 mph (WNW)    
Max Wind Speed 16 mph    
Max Gust Speed 19 mph    
Visibility 10 miles    
Events      
T = Trace of Precipitation, MM = Missing Value Source: NWS Daily Summary

Daily Weather History Graph

Daily Weather History Graph

Search for Another Location

Airport or City:

Trip Planner

Search our weather history database for the weather conditions in past years. The results will help you decide how hot, cold, wet, or windy it might be!

Date:

Astronomy

Aug. 18, 2014 Rise Set
Actual Time 7:00 AM AKDT 11:08 PM AKDT
Civil Twilight 5:56 AM AKDT 12:10 AM AKDT
Nautical Twilight 3:50 AM AKDT 2:08 AM AKDT
Astronomical Twilight Sun does not set Sun does not set
Moon 12:44 AM AKDT (8/18) 7:05 PM AKDT (8/18)
Length of Visible Light 18h 14m
Length of Day
16h 07m
Last Quarter, 37% of the Moon is Illuminated
Aug 18
Last Quarter
Aug 25
New
Sep 2
First Quarter
Sep 8
Full
Sep 15
Last Quarter

Hourly Weather History & Observations

Time (AKDT) Temp. Dew Point Humidity Pressure Visibility Wind Dir Wind Speed Gust Speed Precip Events Conditions
12:53 AM 55.9 °F 54.0 °F 93% 29.62 in 10.0 mi Calm Calm - N/A   Overcast
1:53 AM 55.9 °F 54.0 °F 93% 29.63 in 10.0 mi NNE 3.5 mph - N/A   Overcast
2:53 AM 54.0 °F 53.1 °F 97% 29.65 in 10.0 mi NNW 4.6 mph - N/A   Overcast
3:53 AM 54.0 °F 53.1 °F 97% 29.67 in 10.0 mi WNW 5.8 mph - N/A   Overcast
4:51 AM 53.6 °F 53.6 °F 100% 29.68 in 10.0 mi WNW 6.9 mph - N/A   Mostly Cloudy
4:53 AM 53.1 °F 52.0 °F 96% 29.68 in 10.0 mi WNW 6.9 mph - N/A   Mostly Cloudy
5:26 AM 50.0 °F 48.9 °F 96% 29.68 in 10.0 mi West 8.1 mph - N/A   Scattered Clouds
5:53 AM 50.0 °F 48.9 °F 96% 29.70 in 10.0 mi WNW 8.1 mph - N/A   Scattered Clouds
6:53 AM 48.9 °F 48.9 °F 100% 29.72 in 10.0 mi WNW 10.4 mph - N/A   Scattered Clouds
7:53 AM 50.0 °F 48.9 °F 96% 29.73 in 10.0 mi NW 6.9 mph - N/A   Scattered Clouds
8:53 AM 51.1 °F 48.9 °F 92% 29.75 in 10.0 mi NW 8.1 mph - N/A   Scattered Clouds
9:53 AM 54.0 °F 48.9 °F 83% 29.77 in 10.0 mi NNW 6.9 mph - N/A   Mostly Cloudy
10:53 AM 55.9 °F 48.0 °F 75% 29.78 in 10.0 mi West 11.5 mph - N/A   Mostly Cloudy
11:53 AM 55.9 °F 51.1 °F 84% 29.81 in 10.0 mi WSW 13.8 mph - N/A   Mostly Cloudy
12:53 PM 57.0 °F 51.1 °F 81% 29.83 in 10.0 mi West 15.0 mph - N/A   Mostly Cloudy
1:53 PM 57.0 °F 52.0 °F 83% 29.84 in 10.0 mi WSW 13.8 mph - N/A   Mostly Cloudy
2:32 PM 57.0 °F 52.0 °F 83% 29.85 in 10.0 mi WSW 10.4 mph - N/A   Mostly Cloudy
3:53 PM 57.0 °F 52.0 °F 83% 29.87 in 10.0 mi West 11.5 mph - N/A   Overcast
4:53 PM 57.0 °F 52.0 °F 83% 29.89 in 10.0 mi West 13.8 mph - N/A   Overcast
5:53 PM 57.0 °F 52.0 °F 83% 29.89 in 10.0 mi West 12.7 mph - N/A   Overcast
6:51 PM 57.2 °F 51.8 °F 82% 29.90 in 10.0 mi WSW 12.7 mph - N/A   Mostly Cloudy
6:53 PM 57.0 °F 52.0 °F 83% 29.90 in 10.0 mi West 11.5 mph - N/A   Mostly Cloudy
7:53 PM 55.9 °F 52.0 °F 87% 29.90 in 10.0 mi WSW 11.5 mph - N/A   Mostly Cloudy
8:53 PM 55.0 °F 51.1 °F 86% 29.92 in 10.0 mi West 12.7 mph - N/A   Overcast
9:53 PM 55.0 °F 51.1 °F 86% 29.93 in 10.0 mi West 9.2 mph - N/A   Overcast
10:53 PM 54.0 °F 51.1 °F 90% 29.93 in 10.0 mi WNW 6.9 mph - N/A   Overcast
11:53 PM 54.0 °F 51.1 °F 90% 29.94 in 10.0 mi WNW 5.8 mph - N/A   Overcast